Simultaneous Nadir Overpasses (SNOs) Predictions

Prediction of SNOs between GOES-16 and TERRA Satellite Orbit:

Table of predicted SNOs for the next 14.0 days since TLE Epoch: 6/2/2017
Index Date Time (GOES-16) GOES-16 Lat,Lon TERRA Lat,Lon Distance(km) Time Diff (sec)
1 06/02/2017 16:22:24 0.00, -89.46 -0.36, -87.71 198.61 80
2 06/03/2017 04:43:47 -0.00, -89.46 -0.76, -92.90 391.96 80
3 06/05/2017 04:31:36 -0.00, -89.45 -0.13, -89.95 56.98 80
4 06/07/2017 04:16:45 -0.00, -89.44 0.50, -86.99 278.41 80
5 06/07/2017 16:38:01 0.00, -89.44 0.57, -92.15 308.43 80
6 06/09/2017 16:28:30 0.00, -89.44 -0.07, -89.20 27.35 80
7 06/11/2017 16:16:18 0.01, -89.43 -0.65, -86.24 363.19 80
8 06/12/2017 04:37:43 -0.01, -89.44 -0.41, -91.44 226.68 80
9 06/14/2017 04:22:51 -0.01, -89.44 0.18, -88.47 109.51 80
10 06/14/2017 16:44:07 0.01, -89.43 0.90, -93.63 477.54 80
11 06/16/2017 04:10:40 0.00, -89.44 0.83, -85.52 445.74 80




NCC Satellite Simultaneous Nadir Overpasses (SNOs) Prediction Service
